Погода в Адамии

Россия / Республика Адыгея     45°04′08″N   39°29′49″E
темп.,
°C
ветер,
м/с
пор.,
м/с
влажн.,
%
обл.,
%
осадки,
мм/ч
давл.,
гПа
погр.,
м
22 января, пт
пт2200:00+2юз6148482 0.0 1031397
03:00+3юз6148341 0.0 1030407
06:00+2юз511820 0.0 1030273
09:00+1ю37800 0.0 1030141
12:00+2ююв34900 0.0 1030126
15:00+3юв33901 0.0 102889
18:00+1юв23750 0.0 102825
21:00+1юв33710 0.0 102826
23 января, сб
сб2300:00+1ююв337813 0.0 102726
03:000ююв237432 0.0 102624
06:000юв337015 0.0 102624
09:00+1юв23717 0.0 102627
12:00+4вюв23771 0.0 102579
15:00+5вюв337545 0.0 102447
18:00+2вюв336989 0.0 102426
21:00+2юв337045 0.0 102425
24 января, вс
вс2400:00+2вюв33720 0.0 102324
03:00+1вюв23720 0.0 102224
06:00+1вюв346867 0.0 102135
09:00+2вюв346779 0.0 102148
12:00+5в3470100 0.0 1019112
15:00+6в2374100 0.0 101851
18:00+3вюв2372100 0.0 101823
21:00+3ююв2269100 0.0 101823
25 января, пн
пн2500:00+3ююв2373100 0.0 101824
03:00+3ю3371100 0.0 101925
06:00+3юв3467100 0.0 101932
09:00+4юв3465100 0.0 101950
12:00+8вюв346667 0.0 1018113
15:00+8в347184 0.0 1016102
18:00+5в4473100 0.0 101567
21:00+5юв2371100 0.0 101524
26 января, вт
вт2600:00+6ю3569100 0.0 101577
03:00+7ю51055100 0.0 1015171
06:00+6ююз2369100 0.0 101527
09:00+7юв4769100 0.0 101497
12:00+12ююв3967100 0.0 1013222
15:00+13юз61651100 0.0 1013672
18:00+9ююз51272100 0.0 1016293
21:00+8юз3884100 0.3 1017224